STARLINK-3968 (52639 NORAD) Tracking and Keplerian Element Data
This shows tracking and keplerian element data for the satellite.
Feedback or suggestion? Click here.
Element | Value |
Catalog | 52639 |
Name | STARLINK-3968 |
Epoch Orbit | 130 |
Epoch Day | 192.91667824 |
Epoch Year | 2022 |
RAAN | 152.1489 |
Inclination | 53.2143 |
Eccentricity | 0.0002637 |
Argument of Perigee | 15.4883 |
Mean Anonmoly | 258.864 |
Mean Motion | 15.73274307 |
Decay Rate | -0.000503 |
L1 | 1 52639U 22052AT 22192.91667824 -.00050300 00000+0 -35489-3 0 9996 |
L2 | 2 52639 53.2143 152.1489 0002637 15.4883 258.8640 15.73274307 1308 |
Live tracking and technical data element details for STARLINK-3968 (NORAD 52639). STARLINK-3968 can be tracked NOW for your location showing map with azimuth and elevation plus other details from your city location.
Track the satellite on the map from your city or location and see movement details for azimuth, elevation, latitude, longitude, range, height, and movement on the map or in text.
IsCatalogInMostPopularTable: catalog: 52639, numindb: 6
Update: records affected: 1
GetName: 52639 STARLINK-3968
Hit Count: updated at: Sun, 14 Aug 2022 00:07:58 GMT